Wind_Speed
82 81 81 80 79 78 78 77 76 75 75 75 74 73 73 73 74 75 75 75 75 75 74 74 72 71 69 67 66 65 64 64 64 64 64 64 63 63 62 62 62 63 64 64 65 65 65 65 64 64 64 64 64 64 64 64 65 65 65 65 65 65 65 65 65 65 66 66 66 67 67 68 69 69 70 72 73 76 79 82 86 89 91 92 93 93
80 79 78 77 76 76 76 76 74 74 74 74 73 73 73 73 74 74 73 73 72 71 71 70 69 68 66 65 63 63 62 62 62 63 62 62 62 61 61 61 61 62 62 63 64 64 64 64 64 63 63 63 63 63 63 63 64 64 65 65 65 65 65 65 66 66 67 67 67 67 68 68 69 69 69 70 71 73 75 79 82 86 89 91 92 93
78 78 77 76 75 75 75 74 73 73 73 73 73 73 74 74 73 72 71 69 68 67 66 66 66 65 63 62 61 61 60 60 60 60 60 60 60 59 59 59 60 60 61 62 63 63 63 63 63 62 62 62 62 61 62 62 62 63 64 64 65 65 65 66 66 67 67 68 68 68 69 69 69 69 69 69 70 71 73 76 79 82 86 89 91 91
77 76 76 76 75 74 73 73 72 72 72 73 73 73 73 73 72 70 68 66 64 63 63 63 62 62 61 60 59 58 58 58 58 58 58 57 57 57 57 57 58 59 60 60 61 62 62 62 61 61 61 61 60 60 60 60 61 61 62 63 63 64 64 65 66 67 67 68 68 69 69 69 69 69 69 69 70 71 72 73 76 79 83 86 88 90
76 76 75 75 75 74 73 72 72 73 73 73 73 72 72 71 69 67 65 62 61 60 60 60 60 59 59 58 57 56 56 55 55 55 55 54 54 54 55 55 56 57 58 59 59 60 60 60 60 60 60 60 59 59 58 58 59 59 60 61 61 62 63 64 65 66 67 67 68 68 68 68 68 68 69 69 70 71 72 73 74 76 79 82 85 87
76 75 75 75 74 74 73 73 73 73 73 72 71 70 69 68 66 64 62 59 58 57 57 57 57 57 56 56 55 54 54 53 53 52 52 52 52 52 53 53 54 55 56 57 58 58 58 59 59 59 59 59 58 57 57 57 57 58 58 59 60 61 62 63 64 65 66 66 66 67 67 67 67 68 68 69 70 71 72 72 73 74 76 79 82 84
75 75 74 75 75 75 74 74 74 73 72 71 69 67 66 65 63 61 59 58 56 56 55 55 54 54 54 54 53 53 52 51 51 50 50 50 50 50 51 52 53 54 55 56 56 57 57 57 58 58 58 57 56 56 55 55 55 56 56 57 58 59 61 62 64 65 65 65 65 65 65 66 66 67 68 69 70 71 72 72 73 73 74 76 78 81
75 75 75 75 76 76 75 74 72 71 69 68 66 65 64 63 61 59 58 56 55 54 54 53 53 52 51 51 51 51 51 51 50 50 49 49 49 50 51 51 52 53 54 55 55 55 56 56 56 56 56 55 55 54 54 54 54 55 55 56 57 58 60 61 63 63 63 63 63 63 64 65 65 66 67 69 70 71 72 72 72 72 73 74 76 78
75 75 76 76 76 76 75 72 70 67 65 64 63 62 62 61 60 58 57 55 54 53 53 52 52 51 50 50 50 50 50 50 50 49 49 49 49 49 50 51 52 52 53 54 54 54 54 55 54 54 54 54 53 53 53 53 54 54 55 56 56 58 59 61 61 61 61 61 61 61 63 64 65 66 67 69 70 71 71 72 72 72 73 73 74 76
75 76 76 76 75 74 72 69 66 64 62 61 60 60 60 60 59 58 56 54 53 52 52 52 51 50 49 49 49 49 49 49 49 49 49 49 49 49 50 50 51 51 52 52 53 53 53 53 53 53 53 52 52 52 52 52 53 54 54 55 56 57 58 59 60 60 59 59 59 60 61 63 64 66 67 69 70 71 71 71 71 72 73 74 74 75
76 76 76 75 73 70 68 65 63 61 60 59 59 58 58 58 58 58 57 55 53 52 51 51 50 50 49 48 48 48 48 48 48 48 48 48 48 49 50 50 50 51 51 51 52 52 52 52 52 52 52 51 51 51 51 51 52 53 53 54 55 56 57 58 58 58 57 57 57 58 59 61 62 64 66 68 69 70 70 71 71 72 73 73 74 74
75 75 74 72 69 67 64 62 61 60 59 58 58 58 57 57 57 57 57 55 53 52 50 49 48 47 47 47 47 47 47 47 47 47 46 47 47 48 49 49 49 49 50 50 50 50 51 51 51 51 50 50 50 50 50 50 50 51 51 52 53 54 55 55 55 55 55 55 55 56 57 59 60 62 64 66 68 69 70 70 71 72 72 73 73 73
74 72 70 68 65 63 61 60 59 59 58 58 58 58 57 56 56 55 55 54 52 50 49 47 46 44 44 44 44 45 45 46 45 45 45 45 45 46 47 47 47 47 47 48 48 48 48 49 49 49 49 48 48 48 48 48 48 49 49 50 51 51 52 52 53 52 52 52 53 54 55 56 57 59 60 62 64 66 68 70 70 71 72 73 73 73
72 69 66 63 62 60 59 59 59 59 58 58 58 58 57 56 54 53 52 50 49 47 46 44 43 41 40 40 41 42 44 44 43 43 42 42 42 44 45 45 45 45 45 45 45 45 46 47 47 47 47 46 46 46 46 46 46 46 47 47 48 48 49 49 49 50 50 50 51 51 53 53 54 55 56 58 60 63 66 68 70 71 72 72 72 72
68 65 62 60 59 58 58 58 58 58 58 57 57 56 55 53 51 49 48 46 44 43 42 41 39 38 37 37 38 39 41 41 41 40 38 38 39 40 42 42 42 41 41 42 42 42 43 44 44 44 44 44 44 44 44 44 44 44 44 44 44 45 45 46 46 47 47 47 48 49 50 50 51 52 52 54 56 59 63 66 68 70 71 72 72 72
64 62 60 59 58 57 57 57 58 57 57 56 54 53 51 49 47 45 43 42 41 40 39 38 37 35 33 33 34 36 38 38 38 36 35 34 35 37 39 39 39 38 38 38 39 40 40 41 41 42 42 42 42 42 42 42 42 41 41 41 41 41 42 42 43 43 44 45 45 46 47 48 48 49 49 51 53 56 59 63 65 68 70 71 72 72
60 59 58 58 57 57 56 56 56 55 54 52 50 48 46 44 42 41 40 39 38 38 37 36 35 33 31 30 30 32 35 35 35 33 32 31 31 33 35 36 36 35 35 36 36 37 38 39 39 39 39 40 40 40 40 40 39 39 39 39 39 39 39 39 40 40 41 41 42 43 44 45 45 46 47 49 51 53 56 59 63 66 68 70 71 71
58 57 57 57 57 56 55 54 53 52 50 48 45 43 41 39 38 38 37 37 37 36 36 35 34 32 30 27 27 29 32 32 32 30 29 28 28 30 32 34 34 33 33 33 34 35 36 36 37 37 37 37 37 37 38 37 37 37 37 36 36 36 36 37 37 37 38 38 39 40 41 42 43 44 45 46 48 50 53 56 60 63 66 68 69 69
56 56 56 56 56 55 53 52 50 48 46 43 41 39 37 36 36 36 36 35 35 35 34 33 32 31 29 27 26 27 29 30 29 28 26 25 26 28 30 31 31 31 31 31 32 33 34 34 34 35 35 35 35 35 35 35 35 35 34 34 34 34 34 34 34 34 34 35 36 37 38 39 40 41 43 44 45 47 49 53 57 60 64 67 68 68
56 55 55 55 55 53 50 48 45 44 42 40 39 37 36 35 35 35 34 34 34 33 33 32 31 30 29 27 26 27 29 29 29 27 26 25 25 26 28 29 29 29 29 29 30 31 32 32 32 33 33 33 33 33 33 33 33 32 32 32 32 32 32 32 31 31 31 32 32 33 35 36 37 39 40 41 42 44 46 49 54 58 62 64 66 66
55 54 53 53 52 50 47 44 41 40 39 38 38 37 36 36 35 35 34 33 33 32 32 31 30 30 29 27 26 27 29 29 29 27 26 25 25 26 27 28 28 28 27 27 28 29 30 30 31 31 31 31 31 31 31 31 31 30 30 30 30 30 30 29 28 28 28 28 29 31 32 33 35 36 37 39 40 42 44 47 51 55 59 62 63 64
54 53 51 49 48 46 43 41 39 38 38 38 38 38 38 38 37 36 35 33 32 31 31 30 30 29 29 28 27 28 29 30 30 29 28 26 25 26 27 28 28 27 26 26 27 27 28 28 29 29 30 30 30 29 29 29 29 29 29 29 29 28 26 25 24 24 25 25 26 28 29 31 32 34 35 36 38 40 42 46 49 53 57 60 61 61
51 50 48 46 44 42 41 39 38 38 39 39 40 40 40 40 39 38 36 34 33 31 30 29 29 29 29 29 29 29 30 31 31 31 30 28 27 26 27 28 28 27 26 26 26 26 27 27 28 28 28 28 28 28 27 27 27 27 27 27 26 24 22 22 23 25 25 25 25 26 27 29 30 31 32 34 36 39 41 44 48 51 55 57 58 59
47 46 44 42 41 40 40 39 40 40 41 42 42 42 42 42 41 39 38 36 34 32 30 29 28 27 27 28 29 29 30 31 32 32 31 30 28 27 27 28 28 27 26 26 26 26 27 27 27 27 27 27 27 26 26 25 25 25 25 24 22 20 20 22 25 28 28 28 26 25 25 27 28 29 31 33 35 37 40 42 46 49 52 54 55 57
44 42 41 40 40 40 40 41 42 43 44 45 45 44 44 43 41 40 38 37 35 33 31 30 28 27 27 27 27 28 29 31 32 32 32 31 29 28 28 29 29 28 26 26 26 26 27 27 27 27 27 27 26 25 25 24 24 24 24 22 20 18 19 22 26 29 30 29 26 24 24 25 26 27 29 31 33 36 38 41 44 47 50 52 54 55
40 40 39 40 40 41 42 43 45 46 47 47 47 46 45 43 41 40 39 38 36 34 32 31 29 28 27 27 27 27 28 30 31 32 32 31 30 29 28 29 29 29 27 26 26 26 27 27 27 27 27 26 25 24 24 24 23 23 22 20 18 18 20 22 26 28 28 26 24 22 22 23 24 26 27 30 32 34 36 39 42 45 48 50 53 54
38 38 39 40 41 43 44 45 46 47 48 48 48 47 45 43 41 40 39 38 36 34 33 31 30 29 28 27 27 27 28 29 31 32 32 31 30 28 28 28 29 29 28 26 25 25 26 26 27 27 27 26 25 24 24 23 23 22 21 19 18 18 19 21 24 25 24 23 21 20 19 20 22 24 26 28 30 33 35 38 41 44 47 50 52 54
37 38 40 41 43 44 45 46 47 47 47 47 47 45 43 42 40 39 37 36 35 34 32 31 30 29 28 27 26 27 27 29 30 31 30 29 29 28 27 27 28 28 27 25 24 24 25 25 26 26 26 25 25 24 23 23 22 21 20 19 18 17 18 20 21 22 21 20 18 17 17 19 20 22 24 27 29 32 35 38 41 44 47 49 52 54
37 39 41 43 44 45 46 46 46 45 45 44 43 41 40 39 38 37 35 34 33 32 31 30 29 28 27 26 25 25 26 28 29 29 28 28 27 26 26 26 26 26 26 24 22 22 23 24 25 26 25 25 24 23 22 21 20 19 18 17 16 16 17 18 19 19 18 17 15 15 15 17 19 21 24 26 29 32 35 38 41 44 47 50 52 54
38 40 42 43 44 44 43 43 42 41 40 39 38 37 36 35 34 34 33 32 31 31 29 29 28 27 26 25 24 23 24 25 26 27 26 26 25 25 24 25 25 24 23 22 21 20 21 23 24 25 24 24 23 21 20 18 17 16 15 14 14 15 16 18 18 17 15 13 13 13 14 16 18 21 24 26 29 33 36 39 42 45 48 50 52 53
39 40 40 40 40 39 38 37 36 35 34 33 33 32 32 32 32 32 31 31 30 29 28 27 26 26 25 24 23 22 22 22 24 25 25 24 24 23 23 23 22 22 21 21 20 20 20 21 22 23 22 21 20 18 17 15 14 13 12 12 13 14 16 16 15 14 12 11 11 12 13 15 18 21 24 27 30 34 37 40 43 46 49 51 52 53
38 38 37 36 35 34 33 32 32 31 31 30 30 30 30 30 30 30 30 29 29 28 27 26 25 25 24 24 23 22 22 22 22 23 23 23 22 21 21 21 20 20 20 20 20 20 19 19 20 20 19 18 17 15 14 12 11 11 11 12 13 14 14 13 12 10 9 8 9 11 13 16 18 22 25 28 31 35 38 41 44 47 49 51 52 52
35 34 33 32 31 31 30 30 29 29 29 29 28 28 28 28 28 29 28 28 28 27 26 25 25 24 23 23 22 22 22 22 22 22 22 21 21 20 19 19 19 19 19 20 20 19 18 17 17 16 16 15 14 12 11 10 9 10 10 11 12 12 11 10 8 7 6 7 8 11 13 16 19 22 26 29 32 36 39 42 45 47 49 50 51 51
31 30 30 30 29 29 29 28 28 28 28 27 27 27 27 27 27 28 28 28 27 27 26 25 25 24 23 22 21 21 21 21 21 22 22 21 20 19 19 19 19 19 19 19 19 18 17 15 14 14 13 12 11 10 9 8 8 8 9 10 10 9 8 6 5 4 5 6 9 11 14 17 20 23 26 30 33 36 40 43 45 47 49 50 50 50
29 29 29 28 28 28 27 27 27 26 26 26 26 27 27 27 27 27 27 27 27 27 26 26 25 24 23 22 21 20 20 21 21 22 21 20 19 19 18 18 18 18 18 18 17 16 16 14 13 12 11 10 9 7 6 6 7 8 8 8 7 7 5 4 2 3 4 7 9 12 14 17 20 23 26 30 33 37 40 43 45 47 48 49 49 49
28 28 27 27 26 26 25 25 25 25 25 25 25 26 26 26 26 27 27 27 27 27 26 26 25 25 24 23 22 21 21 21 21 21 21 20 19 19 19 19 18 18 18 17 16 16 15 13 12 11 10 9 8 6 6 6 7 7 7 6 5 4 2 1 2 3 5 7 10 12 15 18 21 24 27 30 33 37 40 42 45 46 47 48 48 48
27 26 26 25 24 24 23 23 23 23 24 24 25 25 25 26 26 26 27 27 27 27 27 26 26 25 25 24 24 23 22 22 22 21 21 20 20 20 20 20 19 18 18 17 16 15 14 13 11 10 9 8 7 7 7 7 7 6 5 4 3 2 1 1 3 5 7 9 11 13 16 18 21 24 27 30 33 37 40 42 44 45 47 47 48 48
25 25 24 23 23 22 22 22 22 22 23 23 24 24 25 25 26 26 26 27 27 27 27 27 26 26 26 25 25 24 24 23 22 21 20 20 20 20 20 20 19 18 18 17 16 15 14 13 11 10 9 9 8 8 8 8 7 6 5 4 2 1 2 3 5 6 8 10 12 14 16 19 21 24 27 30 33 36 39 41 43 45 46 47 47 48
24 23 22 22 21 21 21 21 21 22 22 22 22 23 23 24 25 25 26 26 26 27 27 27 26 26 25 25 24 24 24 23 22 21 20 20 19 19 19 19 19 18 18 17 16 15 14 12 11 10 10 10 10 10 9 9 8 7 5 4 2 2 3 5 6 8 9 11 13 15 17 19 22 24 27 30 33 36 38 41 43 44 45 46 47 47
22 21 21 20 20 20 20 20 21 21 22 21 21 21 22 22 23 24 25 26 26 26 26 26 26 25 25 24 23 23 23 23 22 22 21 20 19 19 19 19 18 18 17 17 16 16 14 13 11 10 10 11 11 11 10 9 8 7 5 4 3 4 5 6 8 9 10 12 13 15 17 19 21 24 27 30 32 35 38 40 42 43 45 46 46 47
20 20 19 19 19 20 20 20 21 21 21 21 20 20 20 21 22 23 24 24 25 25 25 25 25 25 24 24 23 23 23 23 23 22 21 20 19 18 18 18 17 17 17 17 17 16 15 13 12 11 11 12 11 11 10 9 8 6 5 4 5 6 7 8 9 10 11 12 14 15 17 19 21 23 25 28 31 34 36 38 40 42 43 45 46 46
20 19 19 19 19 19 20 20 21 21 21 20 20 19 19 20 21 22 22 23 24 24 24 24 25 25 24 24 23 23 23 23 23 22 22 21 20 19 18 17 16 16 16 16 16 16 15 14 13 13 13 12 11 10 10 8 7 6 5 5 6 7 8 9 10 11 12 13 14 15 16 18 20 22 24 26 29 31 34 36 38 40 41 43 44 45
20 19 19 19 19 19 19 20 20 20 20 20 19 19 19 19 20 21 22 22 23 23 24 24 24 25 25 24 24 23 22 22 22 21 21 21 20 19 18 16 16 15 15 15 16 16 14 14 13 13 13 11 10 10 9 8 7 6 6 7 8 8 9 10 11 12 13 13 14 15 16 17 19 21 23 25 27 29 31 34 36 38 39 41 42 44
20 19 19 19 19 19 19 19 20 20 19 19 19 19 19 19 20 21 21 22 22 23 24 24 25 25 25 24 24 23 22 21 20 20 20 20 20 19 18 16 15 14 13 14 14 15 14 13 13 12 11 10 9 9 9 8 7 7 7 8 9 10 10 11 12 13 13 14 15 15 16 17 19 20 22 24 25 27 29 31 33 35 37 39 40 41
19 19 19 19 19 19 19 20 20 20 19 19 19 19 19 20 20 21 21 22 23 23 24 25 25 25 25 24 23 22 21 20 19 19 20 20 20 19 18 16 15 13 12 12 12 13 13 13 12 11 10 9 9 9 9 8 7 7 8 9 10 10 11 12 13 13 14 14 15 16 17 18 19 20 22 23 25 26 28 29 31 33 35 36 38 39
19 19 19 19 20 20 20 20 20 20 20 19 19 19 19 19 20 20 21 21 23 24 25 26 26 25 25 24 23 22 21 19 18 18 18 19 20 19 18 17 15 13 11 11 11 11 11 11 11 10 10 9 8 8 8 8 7 8 8 9 10 11 12 13 13 14 14 15 16 16 17 18 19 20 22 23 24 25 27 28 29 31 33 34 36 37
19 19 19 19 20 20 20 20 20 20 20 19 19 19 19 19 19 20 20 21 22 24 25 25 25 25 24 23 23 22 21 19 17 16 16 17 19 19 19 17 15 13 11 10 10 10 10 10 10 9 9 9 8 8 8 7 7 8 9 10 11 12 12 13 13 14 15 15 16 17 17 18 19 21 22 23 24 25 26 27 28 30 31 32 34 35
19 19 19 19 19 20 20 20 20 20 20 20 19 19 19 19 19 19 19 20 21 22 23 24 24 23 23 23 23 22 22 20 18 16 14 15 16 18 19 18 17 14 12 10 10 9 9 9 9 8 8 8 8 8 7 7 8 8 10 10 11 12 13 13 14 14 15 15 16 17 18 18 19 21 22 23 24 24 26 26 28 29 30 31 33 34
19 19 19 19 19 19 19 19 19 19 20 20 19 19 19 19 19 19 19 20 20 21 21 22 21 21 22 22 22 22 22 22 20 17 14 13 14 16 18 18 18 16 13 11 10 9 9 8 8 8 7 7 7 7 7 7 8 9 10 11 12 13 13 14 14 15 15 16 17 17 18 19 20 21 22 23 23 24 25 26 27 28 30 31 32 33
19 20 20 20 19 19 19 19 19 19 19 19 19 19 19 19 19 19 19 19 20 20 20 20 19 20 20 21 21 22 22 22 21 19 16 13 12 13 15 17 18 17 15 12 10 9 8 8 7 7 7 7 7 7 7 8 9 10 11 12 13 13 14 14 14 15 16 16 17 18 18 19 20 21 22 23 24 25 26 27 28 28 29 30 31 32
19 19 20 19 19 19 19 18 18 18 19 19 19 19 19 19 18 18 18 19 19 19 19 18 18 18 19 20 20 21 22 22 21 20 17 14 11 11 12 15 16 17 16 14 11 9 8 7 7 7 6 6 7 7 8 9 10 11 12 13 13 14 14 15 15 16 16 17 18 18 19 20 21 21 22 24 25 25 26 27 28 29 29 30 31 31
Wind_Direction
301 301 301 301 301 300 300 300 300 300 299 298 298 298 298 297 297 297 296 296 296 295 294 293 292 291 290 289 288 287 286 286 285 285 284 284 283 282 281 280 279 278 277 276 275 274 273 272 271 271 270 269 269 268 268 267 267 266 265 264 263 262 261 259 258 256 255 253 251 250 248 247 245 244 243 242 241 240 238 237 236 235 235 235 235 235
302 302 302 302 301 301 301 300 300 300 300 299 299 299 298 298 297 296 296 296 295 294 293 292 291 291 290 289 288 287 287 286 285 285 285 284 284 283 282 281 279 278 277 276 275 274 273 272 271 271 270 269 268 268 267 266 266 265 265 264 263 262 261 259 258 256 255 253 251 250 248 247 245 244 243 242 241 240 239 237 236 235 234 234 235 235
303 303 302 302 302 302 301 301 301 301 301 301 300 300 299 298 297 296 296 295 294 293 292 291 291 290 290 289 289 288 287 286 286 285 285 284 284 283 282 281 280 278 277 276 275 274 274 273 272 271 270 269 268 267 267 266 265 264 264 263 262 261 260 259 258 256 255 253 252 250 249 247 246 244 243 242 241 240 239 238 236 235 234 233 233 234
304 304 303 303 303 302 302 302 302 302 302 302 301 300 299 298 297 297 296 295 294 293 292 291 291 291 290 290 289 288 287 287 286 285 285 284 283 283 282 280 279 278 277 276 275 275 274 274 273 272 271 270 269 268 267 266 265 264 263 262 262 261 260 259 257 256 255 254 252 251 249 248 246 245 243 242 241 240 239 238 237 235 234 233 233 233
305 305 304 304 304 303 303 304 304 304 303 303 302 301 300 299 298 297 297 296 295 293 293 292 292 291 291 291 290 289 288 287 286 285 284 284 283 282 281 280 279 277 277 276 276 275 275 275 274 273 272 271 270 269 267 266 265 264 263 262 261 260 259 258 257 256 255 253 252 251 250 249 247 246 244 243 241 240 239 238 237 236 235 233 232 232
305 305 305 305 305 305 305 305 305 305 304 303 302 301 300 299 299 298 298 297 296 295 294 293 293 293 292 292 291 290 289 287 286 285 285 284 283 281 280 279 278 277 276 276 276 276 275 275 274 274 273 272 271 270 268 267 265 264 263 261 260 259 258 257 256 255 254 253 252 252 251 249 248 246 245 243 242 240 239 238 237 236 235 234 233 232
306 306 306 306 306 306 307 307 307 306 305 304 303 302 301 300 300 300 299 299 298 297 296 295 294 294 293 293 292 291 290 288 287 286 285 284 283 281 280 279 278 277 277 277 276 276 275 275 274 274 273 272 271 270 269 267 266 264 263 261 260 259 258 257 256 255 254 253 252 252 251 250 248 247 245 244 242 240 239 238 237 236 235 235 233 232
307 307 307 308 308 308 308 308 307 307 306 305 304 302 302 301 301 301 301 300 299 299 298 296 296 295 294 294 293 292 291 290 288 287 286 284 283 282 281 279 279 278 278 277 277 276 276 275 274 274 273 272 271 271 269 268 266 265 263 262 261 260 259 258 257 256 255 254 253 252 251 250 249 247 246 244 242 240 239 237 236 235 235 234 233 232
308 308 308 308 308 308 308 308 307 307 306 305 304 303 303 302 302 301 301 301 301 300 299 298 297 297 296 295 294 293 292 290 289 288 286 285 283 282 281 280 279 279 278 278 277 277 276 275 275 274 273 272 272 271 269 268 267 265 264 263 262 261 260 259 259 258 257 256 254 253 251 250 249 247 246 244 242 241 239 237 235 234 234 233 232 231
309 309 309 309 309 309 309 308 308 307 306 305 304 304 304 303 303 303 302 302 302 301 301 300 299 298 297 295 294 293 291 290 288 287 286 285 284 282 281 280 279 279 278 278 278 277 277 276 275 275 274 273 272 271 270 269 267 266 265 264 263 262 261 261 260 259 259 257 256 254 252 250 249 247 245 244 242 241 239 237 235 234 233 232 231 230
309 309 309 309 309 309 309 308 308 307 306 305 304 304 304 304 304 304 304 303 303 302 301 301 300 299 298 296 294 292 290 289 287 286 285 284 284 283 282 281 280 279 279 278 278 278 277 277 276 276 275 274 273 272 271 270 268 267 266 265 264 263 262 262 261 261 260 258 257 255 253 251 249 247 245 244 242 241 239 237 235 233 232 231 230 229
309 310 310 310 310 310 309 309 308 307 307 306 306 305 305 305 305 305 305 305 305 304 303 301 300 299 298 296 294 291 289 288 286 285 285 284 283 282 282 281 280 280 279 279 279 279 278 278 277 277 276 275 274 273 272 271 270 268 267 266 265 264 264 263 262 261 260 259 257 255 254 251 249 247 245 244 242 240 238 236 234 233 231 230 230 229
310 311 311 311 311 310 310 309 308 308 308 308 307 307 307 307 307 307 307 307 306 306 304 302 301 299 298 296 294 292 289 287 286 285 285 284 283 283 282 281 280 280 280 279 279 279 279 278 278 278 277 277 276 275 273 272 271 269 268 267 266 265 265 264 263 262 260 259 257 255 253 251 249 247 245 243 241 239 238 236 234 232 230 229 229 228
312 312 311 311 311 311 310 310 309 309 309 309 309 309 309 309 309 309 309 309 308 307 306 304 303 301 299 297 295 292 290 288 287 286 286 285 284 283 282 281 281 280 280 280 279 279 279 278 278 278 278 278 277 276 275 273 272 271 269 268 267 266 266 265 264 262 261 259 257 255 253 252 250 247 245 243 240 238 236 234 232 231 229 228 227 226
312 312 312 311 311 311 310 310 310 310 310 310 310 310 311 312 312 312 312 312 311 310 308 307 305 304 302 300 296 293 291 290 289 288 288 287 287 285 284 283 282 282 281 281 280 279 279 278 278 278 278 278 278 277 276 275 274 272 271 270 269 268 267 265 264 263 261 259 257 255 253 251 249 247 245 242 240 237 235 233 231 229 227 226 225 225
312 312 312 311 311 311 310 310 310 311 311 311 312 313 314 315 316 316 316 316 315 314 312 310 309 307 305 302 299 296 294 292 292 292 292 291 290 288 286 286 285 284 284 283 282 281 280 279 279 279 279 279 279 278 278 277 276 275 273 272 270 269 268 266 265 263 261 259 257 254 252 250 248 246 244 242 239 236 233 231 229 227 226 224 224 223
312 312 312 311 311 311 311 311 311 312 312 313 314 316 317 319 320 321 321 321 321 319 317 315 313 311 308 305 301 298 296 296 296 296 296 296 294 292 290 289 288 288 286 285 284 283 282 281 281 281 281 280 280 280 279 279 278 277 275 274 272 270 269 267 266 264 262 259 257 254 252 249 247 245 243 241 238 235 232 229 227 225 224 223 222 221
312 312 312 311 311 311 312 312 313 314 315 316 318 320 322 324 325 326 327 326 325 323 321 319 317 315 312 309 304 300 298 298 299 300 301 300 299 296 294 293 292 292 290 288 286 285 284 283 283 283 282 282 282 281 280 280 279 277 276 275 273 272 270 268 267 265 263 260 257 255 252 249 246 244 242 240 237 234 231 228 226 223 222 221 220 219
312 312 312 312 312 312 314 315 315 316 318 319 321 324 326 328 330 330 330 330 328 326 325 323 321 318 316 312 309 306 303 303 304 306 306 306 305 302 299 297 297 296 295 292 289 287 286 285 285 284 284 283 283 282 281 280 279 278 277 275 274 272 271 270 268 266 264 261 258 255 252 249 246 243 241 238 236 233 230 227 224 222 220 219 217 216
313 313 313 313 313 314 316 317 318 319 320 322 324 327 329 331 332 332 332 331 330 329 328 327 325 321 318 315 313 311 309 308 310 311 312 313 311 308 305 303 302 301 299 296 293 290 289 288 287 286 286 285 284 283 282 281 280 278 277 276 274 273 272 270 269 267 265 263 260 257 253 249 246 244 241 237 234 231 228 226 223 221 219 217 215 214
313 313 314 314 315 316 318 319 320 321 322 324 326 328 329 331 332 332 332 332 332 332 332 330 328 324 320 317 316 314 313 313 314 315 315 316 315 312 309 307 306 305 303 299 296 293 292 290 289 288 287 286 285 283 282 281 280 279 278 276 274 273 272 271 271 269 268 265 262 259 255 251 247 244 241 237 233 229 226 224 221 219 217 215 213 212
314 314 315 315 316 317 319 321 322 323 323 324 325 326 328 329 330 331 331 331 332 333 333 333 330 326 323 320 319 317 316 316 316 316 316 317 316 314 311 309 308 307 306 303 300 297 295 293 292 290 289 287 286 285 284 283 281 280 278 276 275 275 276 278 280 280 277 273 268 263 259 253 249 245 241 236 232 228 224 222 219 217 214 212 210 209
314 315 316 316 317 319 320 321 322 323 323 323 324 325 326 326 327 328 329 329 330 332 333 332 331 328 324 321 320 318 317 317 317 317 317 317 317 315 312 310 309 309 308 306 304 301 299 298 296 293 291 290 288 287 286 285 283 280 278 277 277 279 283 289 293 294 291 286 279 271 263 256 249 244 239 235 230 226 223 220 217 214 212 209 208 206
314 315 317 318 319 320 320 321 321 322 322 322 322 323 324 325 326 327 327 327 328 329 330 330 330 328 324 321 318 317 317 316 316 316 316 316 317 316 313 310 309 309 309 308 306 305 303 301 299 297 295 293 292 290 289 287 284 281 279 278 279 282 288 293 296 297 296 293 287 277 266 257 249 242 236 232 228 224 220 217 214 211 208 206 204 203
315 317 318 319 319 320 320 320 320 320 320 321 321 322 323 324 325 326 326 326 326 326 327 327 327 326 323 319 317 316 315 314 313 313 314 315 317 317 314 311 310 309 309 308 307 305 304 303 301 299 297 296 294 293 291 288 285 281 279 279 280 283 286 290 293 294 294 293 289 280 268 256 247 239 233 228 224 220 217 213 210 207 205 203 201 200
316 317 318 319 319 319 319 319 319 319 319 319 320 321 322 323 324 325 325 325 324 324 325 326 326 325 323 320 317 315 313 312 310 310 311 314 316 317 315 312 310 310 310 308 307 305 304 303 302 300 299 298 297 295 292 289 285 283 282 282 282 283 285 287 289 291 293 293 289 279 265 253 243 235 228 223 219 215 212 208 205 203 201 199 197 196
316 317 317 318 317 317 317 317 317 317 317 318 318 320 321 322 323 324 324 325 324 325 325 325 325 325 324 321 319 316 312 309 307 307 310 313 316 316 315 312 311 310 310 309 307 305 304 304 303 302 301 300 299 297 294 290 287 285 286 287 288 288 288 288 290 293 295 293 286 274 260 247 237 229 223 217 213 210 206 203 200 198 196 195 194 193
316 316 316 316 316 316 316 316 316 316 316 317 318 319 320 322 323 324 326 326 326 326 327 327 327 326 325 323 321 317 313 308 306 307 310 313 315 316 315 313 311 311 310 309 308 307 306 305 304 303 302 302 300 298 296 293 291 290 291 293 294 294 294 294 296 298 297 292 281 266 252 239 229 222 216 211 207 203 200 198 195 194 192 191 191 190
316 316 316 315 315 315 315 315 316 316 317 318 319 321 322 323 324 326 328 328 329 329 330 330 329 329 328 326 324 320 315 310 309 310 313 315 317 317 316 313 312 311 311 311 310 309 307 306 305 304 303 302 300 299 298 298 297 297 297 298 299 300 302 304 304 302 296 285 272 256 241 229 220 213 208 204 200 197 195 193 191 190 189 189 188 188
316 315 315 315 316 316 317 317 318 320 321 322 324 325 327 328 329 330 331 332 332 333 334 334 333 332 331 330 328 324 319 315 314 316 319 320 320 320 318 315 313 313 313 314 314 312 309 307 305 303 303 302 301 301 303 304 305 305 304 305 307 311 312 311 308 301 290 276 260 243 229 218 210 205 200 197 194 192 190 189 188 187 187 186 186 187
317 317 317 318 318 319 321 323 324 326 328 330 331 332 333 334 334 334 335 335 336 337 337 337 337 336 335 334 333 330 326 322 322 324 325 325 325 324 321 318 317 318 319 320 319 316 314 310 306 304 303 303 303 305 309 313 316 318 319 320 322 322 319 313 305 294 281 264 245 229 217 207 201 196 193 191 189 188 187 187 186 186 185 185 185 186
320 321 322 323 325 327 329 331 333 335 336 337 338 338 338 337 337 337 337 338 338 339 339 339 339 339 339 338 337 335 333 331 330 331 332 331 330 329 326 324 325 326 327 327 326 323 320 314 309 306 306 306 308 312 318 324 330 334 336 335 332 326 319 310 299 287 269 248 228 214 204 197 192 190 188 186 186 185 185 185 185 184 184 184 185 185
325 327 329 332 334 336 338 340 341 342 342 342 341 341 340 340 340 340 340 340 341 341 341 341 341 342 342 341 340 338 336 336 336 338 339 337 335 333 332 331 333 334 333 332 331 329 326 321 315 311 310 312 316 323 329 336 341 345 345 342 336 328 318 307 294 277 253 228 211 200 193 189 186 185 184 183 184 184 184 184 184 184 183 184 185 186
333 335 338 340 342 344 345 346 346 346 345 344 344 343 343 342 342 343 343 343 344 344 345 345 345 346 346 346 345 342 340 339 342 345 345 342 338 336 335 336 339 340 339 337 335 333 332 329 325 321 320 324 330 337 344 350 355 357 354 348 339 329 316 304 286 261 229 207 195 189 185 182 181 181 181 181 182 182 183 183 183 183 183 184 185 186
340 342 344 346 347 348 348 348 348 348 347 346 346 345 345 346 346 347 348 348 348 349 350 350 351 352 352 352 351 349 345 345 347 349 349 346 342 339 338 340 344 346 345 343 341 339 338 337 337 336 337 341 348 357 5 13 14 11 3 351 339 327 316 299 268 224 198 188 182 180 179 178 178 178 179 180 181 182 182 183 183 183 184 185 186 187
345 347 348 349 350 350 351 351 350 350 349 349 349 349 349 350 351 352 353 353 354 354 355 357 358 358 359 358 357 355 353 352 352 352 351 349 347 345 345 348 352 354 353 352 350 349 348 348 350 353 355 0 10 25 36 35 28 17 6 354 341 330 319 279 201 180 174 174 174 173 174 175 175 177 178 180 181 182 183 183 184 184 185 186 187 187
348 349 350 351 352 352 353 353 353 353 353 353 353 353 353 354 355 357 357 358 358 359 360 1 2 3 3 3 1 0 358 357 355 354 353 352 352 352 352 356 1 3 2 1 0 359 359 0 4 9 15 22 34 47 53 48 38 27 17 8 0 357 24 149 156 159 161 164 167 169 170 172 174 176 178 180 182 183 184 184 185 186 186 187 188 188
348 349 351 351 352 353 354 355 355 356 356 357 357 357 357 358 358 359 359 360 0 1 2 3 4 5 6 5 4 2 1 360 358 357 356 355 355 355 357 1 6 9 10 9 9 8 9 11 18 28 38 44 51 57 58 55 49 43 37 33 35 61 113 136 145 150 155 159 162 165 168 170 173 176 178 180 182 184 185 186 187 187 188 189 189 190
348 349 350 351 353 354 356 358 358 359 359 359 360 0 0 359 359 359 359 360 0 0 1 1 3 4 6 6 6 5 3 2 2 1 0 359 359 359 1 4 8 12 14 15 15 15 17 21 30 41 51 55 58 61 62 60 57 55 54 55 70 101 122 134 141 146 149 154 158 162 165 169 172 175 178 181 183 185 187 188 188 189 190 190 191 191
348 349 350 352 353 355 358 359 0 0 360 0 1 1 1 1 359 359 358 358 359 359 359 359 0 2 5 6 7 7 7 6 6 6 5 5 4 4 6 7 10 13 16 18 19 20 23 29 39 52 61 62 62 62 64 64 64 65 70 79 98 115 125 132 137 141 145 149 154 159 163 168 172 175 179 182 184 186 188 189 190 191 191 192 192 193
347 349 351 353 354 356 358 359 359 359 358 359 1 2 2 1 360 359 358 358 358 358 358 358 359 0 3 6 8 10 10 10 9 9 8 8 8 9 10 11 13 16 19 21 23 25 28 35 46 58 66 68 68 67 68 68 69 74 85 98 111 121 127 131 135 138 142 146 150 156 160 166 170 175 179 182 185 187 189 190 191 192 193 193 194 194
348 350 352 354 355 356 358 358 358 357 357 358 360 1 1 0 359 358 357 357 357 358 359 359 360 0 2 4 7 10 11 11 10 10 10 10 11 12 13 15 16 19 22 25 27 29 33 41 50 59 64 67 69 71 73 75 78 85 94 105 115 123 128 131 134 136 139 143 147 152 157 163 168 172 177 180 184 186 189 191 192 193 194 195 195 196
350 352 353 354 355 356 356 356 356 356 356 357 357 357 357 357 357 356 356 356 358 360 2 3 3 3 3 3 5 7 9 10 11 11 12 12 13 14 16 17 20 22 26 29 31 34 39 46 54 59 62 66 71 75 78 81 86 94 102 109 117 124 127 131 134 136 138 141 145 150 155 161 166 169 173 177 180 184 186 189 191 193 194 196 197 197
353 354 355 355 355 354 354 354 354 354 354 354 354 354 354 355 356 356 356 357 0 3 6 8 8 7 6 5 4 4 6 8 11 13 14 14 15 16 17 19 21 25 29 33 36 39 44 51 58 62 65 69 76 82 85 88 94 104 112 117 122 127 129 133 135 137 138 141 146 150 155 160 164 167 170 173 176 180 183 186 188 190 192 194 196 197
356 357 357 356 355 354 354 353 352 352 351 351 351 352 353 354 355 357 358 0 4 7 10 12 12 11 10 8 6 4 4 7 10 14 17 17 17 18 19 20 23 26 32 38 42 46 49 53 59 64 69 74 81 87 91 95 103 112 120 124 127 130 133 135 136 137 140 144 149 153 156 159 162 165 168 170 173 176 178 181 184 186 189 191 193 195
359 0 0 359 358 357 355 353 352 350 350 350 351 352 353 355 357 359 1 5 8 11 13 14 14 13 12 11 9 8 6 7 10 14 18 19 20 20 20 22 24 28 34 42 49 53 55 56 60 66 71 78 84 91 96 102 110 118 123 126 129 131 132 134 136 139 143 148 152 155 157 159 161 164 166 168 170 172 174 177 179 181 183 186 188 190
0 2 3 2 1 0 358 356 354 352 351 351 352 354 356 358 1 3 6 9 13 15 16 16 14 13 12 13 12 12 11 11 11 13 17 21 22 23 23 24 26 30 36 44 52 58 62 63 64 67 71 78 86 93 100 108 115 120 125 127 129 130 133 135 138 142 146 150 153 155 157 159 161 163 165 166 168 169 171 173 175 177 179 181 183 185
1 2 4 4 4 3 2 0 358 356 355 354 355 357 359 2 4 7 10 14 17 18 18 17 15 13 13 14 15 15 15 15 14 15 17 22 24 25 25 26 28 32 36 44 52 59 64 68 70 73 76 81 88 96 106 113 118 122 124 126 128 131 135 139 142 145 147 150 152 154 155 158 160 162 163 164 165 167 168 170 171 173 175 176 178 180
0 2 3 4 5 5 4 3 2 1 359 359 359 0 2 5 7 10 13 17 19 21 20 18 16 15 14 15 17 18 18 18 17 16 18 22 26 28 28 29 30 33 38 44 51 58 63 68 72 78 83 88 93 101 110 116 118 120 122 124 128 132 137 140 143 146 148 149 151 152 154 156 158 159 161 162 163 164 165 167 168 170 171 173 175 177
359 0 1 3 4 5 5 5 5 4 3 2 2 3 4 6 8 11 14 18 21 22 21 20 18 16 16 18 20 21 21 20 19 18 19 22 27 31 31 31 31 33 37 43 50 58 64 68 73 78 86 94 99 103 108 111 114 117 121 124 129 133 137 141 143 145 146 148 150 151 153 154 155 157 158 160 161 162 163 164 165 167 168 170 172 174
357 358 359 0 1 2 4 4 5 5 5 5 5 5 5 6 8 10 14 18 20 21 21 20 19 18 19 20 23 25 26 24 22 20 19 21 26 32 35 34 32 33 35 39 45 53 62 69 74 79 84 94 101 103 103 105 109 114 120 126 131 134 137 140 142 144 145 146 148 150 151 153 154 155 157 159 160 160 161 162 163 165 166 167 169 171
Height
5397 5394 5391 5388 5386 5383 5379 5376 5374 5371 5368 5364 5361 5359 5357 5353 5349 5346 5343 5339 5335 5331 5328 5325 5322 5320 5319 5317 5315 5313 5311 5308 5306 5304 5302 5301 5300 5299 5298 5297 5295 5293 5292 5291 5289 5289 5288 5288 5288 5288 5289 5289 5289 5289 5290 5290 5290 5290 5291 5291 5292 5293 5294 5296 5297 5298 5299 5300 5302 5303 5305 5306 5308 5310 5313 5315 5317 5320 5323 5325 5328 5332 5337 5340 5343 5347
5389 5386 5383 5381 5378 5376 5372 5369 5367 5364 5361 5357 5354 5352 5349 5346 5342 5339 5336 5333 5329 5325 5321 5318 5315 5313 5312 5310 5308 5307 5304 5302 5300 5298 5296 5294 5293 5292 5291 5290 5288 5287 5285 5283 5282 5282 5281 5281 5281 5282 5282 5282 5283 5283 5283 5283 5283 5283 5284 5284 5284 5285 5287 5288 5288 5289 5290 5292 5293 5295 5297 5298 5300 5303 5305 5308 5310 5313 5315 5318 5321 5324 5328 5332 5335 5340
5382 5379 5376 5373 5371 5368 5366 5362 5359 5357 5354 5350 5347 5344 5341 5337 5334 5331 5329 5326 5322 5318 5315 5312 5308 5306 5305 5303 5302 5300 5298 5296 5294 5292 5290 5289 5288 5286 5285 5283 5282 5280 5278 5277 5276 5275 5274 5274 5275 5275 5275 5276 5276 5277 5277 5277 5277 5277 5277 5277 5277 5278 5279 5279 5280 5281 5282 5284 5286 5287 5288 5291 5293 5296 5298 5301 5303 5306 5308 5310 5313 5316 5319 5323 5327 5332
5374 5372 5368 5365 5363 5361 5358 5356 5353 5349 5346 5343 5339 5336 5333 5329 5326 5323 5321 5319 5316 5312 5309 5306 5303 5301 5298 5297 5296 5294 5293 5290 5288 5287 5285 5283 5282 5280 5279 5277 5275 5273 5272 5270 5269 5268 5268 5268 5268 5268 5268 5269 5269 5270 5270 5270 5270 5270 5270 5270 5270 5271 5271 5272 5273 5274 5274 5276 5278 5279 5281 5283 5286 5289 5292 5294 5297 5299 5301 5303 5306 5309 5312 5315 5319 5324
5367 5364 5361 5358 5355 5352 5350 5348 5345 5342 5338 5335 5331 5328 5324 5321 5318 5316 5314 5312 5309 5306 5303 5300 5298 5295 5293 5291 5290 5288 5287 5285 5283 5281 5280 5278 5277 5275 5273 5271 5269 5268 5266 5264 5263 5263 5263 5262 5262 5262 5262 5262 5263 5263 5263 5264 5263 5263 5263 5263 5263 5263 5264 5264 5265 5266 5267 5268 5270 5272 5274 5277 5280 5283 5285 5287 5289 5292 5294 5296 5299 5302 5305 5309 5313 5317
5359 5357 5354 5351 5348 5344 5343 5340 5337 5334 5330 5326 5323 5320 5317 5314 5311 5309 5307 5305 5302 5300 5297 5295 5292 5290 5288 5286 5284 5282 5281 5279 5278 5276 5274 5273 5271 5269 5267 5265 5263 5262 5260 5259 5258 5258 5257 5256 5256 5255 5255 5255 5256 5256 5257 5257 5257 5257 5257 5257 5257 5257 5257 5257 5257 5258 5259 5261 5263 5265 5267 5270 5273 5275 5278 5280 5282 5284 5287 5290 5293 5296 5299 5303 5306 5310
5352 5350 5348 5344 5340 5337 5335 5333 5329 5326 5322 5318 5315 5312 5310 5307 5305 5303 5301 5298 5296 5293 5291 5289 5287 5285 5283 5280 5278 5276 5275 5273 5272 5270 5268 5267 5265 5263 5261 5259 5258 5256 5254 5253 5253 5252 5251 5250 5250 5249 5249 5249 5249 5250 5250 5250 5250 5250 5250 5250 5250 5250 5250 5250 5250 5251 5253 5255 5257 5259 5261 5263 5265 5268 5270 5272 5274 5277 5280 5283 5286 5290 5293 5297 5300 5304
5345 5342 5340 5338 5334 5330 5328 5325 5323 5319 5315 5311 5307 5304 5302 5301 5299 5297 5295 5293 5290 5288 5285 5283 5282 5280 5278 5275 5273 5270 5268 5267 5265 5264 5263 5261 5259 5257 5255 5253 5252 5250 5249 5248 5247 5246 5245 5245 5244 5243 5243 5243 5243 5243 5244 5244 5243 5243 5243 5243 5243 5243 5243 5243 5243 5245 5247 5249 5251 5253 5255 5256 5258 5260 5262 5264 5267 5269 5272 5275 5279 5283 5287 5290 5294 5298
5339 5336 5333 5331 5328 5324 5321 5318 5316 5313 5309 5305 5301 5298 5295 5293 5292 5291 5290 5288 5286 5283 5280 5278 5276 5274 5273 5270 5267 5264 5262 5260 5259 5257 5256 5254 5253 5251 5249 5248 5247 5245 5244 5243 5242 5241 5240 5239 5238 5238 5238 5238 5238 5238 5238 5238 5237 5237 5237 5238 5238 5237 5237 5237 5237 5239 5241 5243 5246 5247 5248 5249 5251 5253 5254 5256 5258 5261 5264 5268 5272 5276 5280 5283 5287 5291
5334 5331 5327 5324 5322 5319 5316 5312 5309 5307 5304 5300 5297 5293 5290 5287 5285 5283 5283 5283 5282 5279 5275 5273 5270 5268 5267 5265 5262 5259 5256 5254 5253 5252 5250 5248 5247 5245 5243 5242 5241 5240 5239 5238 5236 5235 5234 5233 5233 5232 5232 5232 5232 5232 5232 5232 5231 5231 5231 5231 5231 5231 5231 5231 5232 5233 5235 5237 5239 5240 5241 5242 5243 5245 5246 5248 5250 5253 5257 5261 5265 5268 5272 5276 5279 5283
5328 5325 5322 5318 5315 5313 5310 5307 5303 5300 5298 5295 5291 5289 5287 5283 5280 5277 5275 5275 5275 5274 5271 5268 5265 5263 5260 5258 5256 5253 5251 5248 5247 5246 5245 5243 5241 5239 5238 5237 5236 5234 5233 5232 5231 5230 5229 5228 5227 5227 5227 5226 5226 5226 5226 5226 5225 5225 5225 5225 5225 5225 5225 5225 5226 5227 5229 5231 5232 5232 5233 5233 5235 5237 5238 5240 5243 5246 5250 5254 5258 5261 5265 5269 5273 5277
5324 5320 5316 5312 5309 5307 5303 5301 5298 5295 5292 5289 5286 5283 5282 5280 5277 5273 5270 5268 5268 5267 5265 5263 5261 5258 5255 5252 5249 5247 5245 5243 5241 5240 5239 5238 5236 5234 5233 5231 5230 5229 5228 5227 5226 5225 5224 5223 5222 5221 5221 5221 5221 5221 5220 5220 5220 5220 5219 5219 5219 5219 5219 5219 5220 5221 5223 5223 5224 5224 5225 5226 5228 5229 5231 5233 5236 5240 5243 5247 5251 5255 5259 5263 5267 5271
5318 5314 5310 5307 5304 5301 5298 5295 5292 5289 5287 5284 5281 5278 5276 5274 5272 5269 5266 5263 5262 5260 5258 5256 5254 5253 5250 5247 5243 5240 5238 5237 5236 5235 5235 5233 5232 5230 5228 5226 5226 5225 5224 5223 5222 5221 5219 5218 5217 5216 5216 5216 5215 5215 5215 5215 5214 5214 5214 5214 5213 5213 5213 5213 5214 5215 5216 5216 5217 5217 5218 5219 5221 5223 5224 5227 5230 5233 5236 5240 5244 5248 5253 5257 5261 5266
5312 5308 5305 5302 5299 5296 5293 5290 5287 5284 5282 5279 5276 5273 5271 5269 5267 5264 5261 5259 5257 5255 5252 5250 5248 5247 5245 5242 5239 5236 5233 5231 5231 5231 5231 5230 5228 5225 5223 5222 5221 5221 5220 5219 5218 5217 5215 5213 5212 5212 5211 5211 5210 5210 5210 5209 5209 5209 5209 5208 5208 5208 5208 5208 5208 5209 5209 5210 5210 5211 5212 5213 5215 5217 5218 5221 5223 5226 5229 5233 5237 5241 5246 5251 5255 5260
5306 5303 5300 5298 5295 5292 5289 5285 5282 5279 5277 5275 5272 5269 5267 5265 5263 5260 5257 5254 5252 5250 5247 5245 5243 5242 5240 5238 5234 5231 5228 5227 5227 5227 5227 5226 5224 5222 5219 5217 5217 5217 5216 5215 5214 5213 5211 5210 5208 5208 5207 5207 5206 5205 5205 5204 5204 5204 5204 5203 5203 5203 5203 5203 5203 5203 5203 5204 5204 5205 5206 5207 5209 5211 5213 5214 5217 5219 5222 5225 5230 5234 5239 5244 5249 5254
5302 5299 5296 5293 5290 5288 5285 5282 5278 5275 5273 5271 5268 5266 5263 5260 5258 5256 5253 5250 5248 5245 5243 5240 5239 5238 5236 5234 5231 5227 5224 5223 5223 5223 5224 5223 5221 5218 5215 5213 5213 5213 5213 5212 5210 5209 5208 5206 5205 5204 5204 5203 5202 5201 5201 5200 5200 5199 5200 5199 5199 5199 5198 5198 5198 5198 5198 5198 5199 5199 5201 5202 5203 5205 5207 5208 5210 5212 5215 5219 5224 5228 5233 5238 5244 5249
5298 5295 5292 5288 5286 5283 5281 5278 5275 5272 5269 5267 5264 5263 5260 5257 5254 5252 5249 5247 5244 5242 5239 5237 5235 5234 5233 5231 5228 5225 5222 5220 5220 5221 5221 5220 5218 5216 5213 5211 5210 5210 5210 5208 5207 5205 5204 5203 5202 5201 5200 5199 5198 5198 5197 5196 5196 5195 5195 5194 5194 5193 5193 5193 5193 5193 5193 5193 5194 5195 5196 5197 5198 5200 5201 5203 5204 5207 5210 5213 5218 5222 5227 5233 5238 5245
5294 5291 5288 5284 5282 5279 5277 5275 5272 5268 5266 5263 5261 5259 5257 5255 5252 5249 5247 5244 5241 5239 5237 5235 5233 5231 5229 5228 5226 5223 5221 5219 5218 5218 5219 5218 5216 5213 5210 5208 5207 5207 5207 5205 5204 5202 5201 5200 5199 5198 5197 5196 5195 5194 5193 5192 5192 5191 5191 5190 5190 5189 5189 5189 5188 5188 5189 5189 5189 5190 5191 5192 5193 5195 5196 5198 5200 5203 5206 5209 5213 5218 5223 5229 5235 5241
5290 5288 5284 5280 5277 5275 5273 5271 5268 5265 5262 5260 5258 5256 5254 5253 5250 5248 5245 5243 5240 5238 5235 5233 5231 5228 5227 5225 5224 5222 5219 5217 5217 5217 5216 5215 5213 5211 5208 5206 5205 5204 5203 5202 5200 5199 5197 5196 5195 5195 5194 5193 5193 5192 5190 5189 5188 5188 5187 5187 5186 5186 5185 5185 5185 5185 5185 5185 5186 5186 5187 5188 5189 5191 5192 5194 5196 5199 5202 5206 5210 5214 5219 5225 5231 5237
5286 5283 5280 5276 5273 5271 5269 5268 5265 5262 5259 5257 5256 5254 5252 5250 5248 5247 5244 5242 5240 5237 5234 5231 5229 5227 5225 5223 5222 5220 5218 5216 5215 5214 5214 5213 5212 5209 5207 5204 5203 5202 5201 5199 5198 5196 5194 5194 5193 5193 5191 5190 5189 5188 5187 5186 5185 5185 5184 5183 5183 5182 5182 5182 5182 5182 5182 5183 5183 5183 5184 5185 5186 5187 5189 5191 5193 5196 5199 5203 5206 5211 5215 5221 5227 5234
5281 5279 5277 5273 5270 5267 5265 5264 5262 5260 5258 5255 5253 5252 5250 5248 5247 5245 5243 5241 5238 5235 5233 5230 5228 5225 5223 5222 5220 5218 5216 5214 5213 5212 5212 5211 5210 5208 5205 5203 5201 5200 5199 5197 5195 5194 5193 5192 5191 5189 5188 5187 5186 5185 5184 5183 5183 5182 5181 5181 5180 5179 5179 5179 5179 5179 5180 5180 5181 5181 5181 5182 5183 5184 5186 5188 5190 5193 5196 5199 5203 5207 5212 5218 5224 5231
5277 5275 5273 5271 5268 5265 5263 5261 5260 5258 5256 5254 5252 5250 5248 5246 5244 5243 5241 5239 5237 5234 5232 5229 5227 5225 5223 5220 5219 5217 5215 5213 5211 5210 5209 5209 5208 5206 5203 5201 5199 5198 5197 5195 5194 5193 5191 5190 5188 5187 5186 5185 5183 5183 5182 5181 5180 5179 5179 5178 5177 5177 5176 5176 5177 5177 5177 5178 5179 5179 5180 5180 5181 5182 5184 5186 5188 5190 5193 5196 5199 5204 5209 5215 5222 5228
5274 5272 5270 5268 5266 5263 5261 5259 5258 5256 5254 5252 5249 5247 5245 5243 5242 5240 5239 5237 5235 5233 5231 5229 5227 5224 5222 5220 5218 5216 5213 5211 5209 5208 5207 5207 5206 5205 5203 5200 5198 5197 5196 5194 5192 5191 5189 5188 5186 5185 5184 5183 5182 5180 5179 5179 5178 5177 5176 5176 5175 5175 5174 5174 5175 5176 5176 5177 5177 5178 5178 5178 5179 5180 5182 5183 5185 5188 5190 5193 5197 5202 5207 5213 5220 5226
5272 5270 5268 5266 5263 5261 5259 5257 5255 5253 5251 5249 5247 5245 5243 5241 5239 5238 5236 5235 5233 5231 5230 5228 5226 5224 5222 5219 5217 5215 5213 5210 5208 5206 5205 5204 5204 5203 5201 5199 5197 5196 5195 5193 5191 5189 5188 5186 5185 5183 5182 5181 5180 5178 5178 5177 5176 5175 5174 5174 5173 5173 5173 5173 5174 5175 5175 5175 5176 5176 5176 5176 5177 5178 5179 5181 5183 5185 5188 5191 5195 5200 5205 5212 5218 5225
5270 5268 5266 5263 5261 5259 5257 5254 5252 5250 5248 5246 5244 5243 5241 5239 5237 5235 5233 5232 5230 5229 5227 5226 5224 5223 5221 5218 5216 5214 5212 5209 5206 5204 5203 5202 5202 5201 5200 5197 5195 5194 5193 5192 5190 5188 5186 5185 5183 5182 5180 5179 5178 5177 5176 5175 5174 5173 5173 5172 5172 5171 5172 5172 5173 5174 5175 5174 5174 5174 5174 5174 5174 5175 5177 5179 5181 5184 5187 5190 5194 5199 5205 5210 5217 5223
5269 5266 5264 5261 5259 5257 5255 5253 5250 5248 5246 5243 5241 5239 5238 5236 5234 5233 5231 5229 5228 5226 5224 5223 5222 5220 5219 5217 5215 5213 5211 5208 5206 5203 5201 5200 5200 5199 5198 5196 5194 5193 5192 5190 5189 5187 5185 5183 5182 5180 5178 5177 5176 5175 5174 5173 5173 5172 5171 5171 5170 5170 5170 5172 5173 5173 5173 5173 5173 5172 5172 5172 5173 5173 5175 5177 5180 5183 5186 5189 5194 5199 5204 5210 5216 5223
5267 5265 5263 5260 5258 5256 5254 5251 5249 5247 5244 5242 5239 5237 5235 5233 5232 5230 5229 5227 5225 5223 5222 5220 5219 5218 5217 5215 5213 5211 5209 5207 5205 5202 5200 5199 5198 5198 5197 5195 5193 5191 5190 5189 5187 5186 5183 5182 5180 5179 5177 5176 5175 5174 5173 5172 5172 5171 5171 5170 5169 5169 5170 5171 5172 5172 5172 5171 5170 5170 5170 5170 5171 5172 5174 5176 5178 5182 5185 5189 5194 5199 5204 5210 5216 5222
5266 5264 5262 5259 5257 5254 5252 5250 5247 5245 5242 5240 5237 5235 5233 5231 5229 5228 5226 5224 5223 5221 5219 5218 5216 5215 5214 5213 5211 5209 5207 5205 5202 5200 5199 5198 5197 5196 5195 5193 5191 5189 5188 5187 5186 5184 5182 5180 5179 5178 5176 5175 5174 5173 5172 5171 5171 5170 5170 5170 5169 5169 5169 5170 5170 5170 5170 5169 5168 5168 5168 5168 5169 5171 5173 5175 5178 5182 5185 5189 5194 5199 5204 5210 5216 5223
5265 5263 5260 5258 5255 5253 5250 5248 5245 5243 5241 5238 5236 5233 5231 5229 5227 5225 5223 5222 5220 5219 5217 5216 5214 5213 5212 5210 5209 5207 5205 5202 5200 5198 5197 5196 5195 5194 5193 5191 5189 5188 5186 5185 5184 5183 5181 5179 5178 5176 5175 5174 5173 5172 5171 5170 5170 5170 5170 5169 5169 5169 5169 5169 5169 5169 5168 5168 5167 5167 5167 5168 5169 5170 5172 5175 5178 5182 5185 5190 5194 5199 5204 5210 5216 5223
5265 5262 5259 5257 5254 5251 5248 5246 5244 5241 5239 5236 5234 5232 5229 5227 5225 5223 5222 5220 5219 5217 5216 5214 5213 5211 5210 5208 5207 5206 5203 5201 5198 5197 5196 5195 5193 5192 5191 5189 5188 5186 5185 5183 5183 5182 5181 5179 5177 5175 5174 5173 5172 5171 5170 5170 5170 5169 5169 5169 5169 5169 5168 5168 5168 5168 5167 5167 5166 5166 5166 5167 5168 5170 5173 5175 5178 5182 5186 5190 5195 5199 5205 5211 5217 5223
5263 5261 5258 5255 5253 5250 5247 5245 5242 5240 5238 5235 5233 5230 5228 5226 5224 5222 5221 5219 5218 5216 5214 5213 5211 5210 5208 5207 5206 5204 5203 5200 5198 5196 5194 5193 5192 5191 5189 5188 5186 5185 5183 5183 5182 5181 5180 5178 5176 5174 5173 5172 5171 5171 5170 5170 5170 5169 5169 5168 5168 5168 5168 5168 5168 5167 5166 5166 5166 5166 5166 5167 5169 5171 5173 5176 5179 5183 5187 5191 5196 5201 5206 5212 5218 5224
5261 5259 5256 5254 5251 5248 5246 5243 5241 5238 5236 5234 5232 5229 5227 5225 5223 5222 5220 5218 5217 5215 5214 5212 5211 5209 5208 5206 5205 5203 5201 5199 5197 5195 5194 5193 5191 5189 5188 5187 5185 5184 5182 5181 5181 5180 5179 5178 5176 5173 5173 5171 5171 5170 5170 5170 5169 5169 5168 5168 5168 5168 5168 5168 5167 5166 5166 5166 5166 5166 5167 5168 5170 5172 5174 5177 5180 5184 5188 5192 5197 5202 5208 5213 5219 5225
5259 5257 5254 5252 5249 5247 5244 5242 5240 5238 5235 5233 5231 5229 5227 5225 5223 5222 5220 5218 5217 5215 5213 5212 5210 5208 5207 5206 5204 5202 5200 5198 5197 5195 5193 5192 5191 5189 5187 5186 5185 5183 5182 5180 5179 5178 5178 5177 5175 5173 5172 5171 5171 5170 5170 5169 5169 5169 5168 5168 5168 5169 5168 5168 5167 5166 5166 5166 5166 5167 5168 5169 5171 5173 5175 5178 5182 5185 5189 5194 5198 5204 5209 5215 5220 5225
5258 5255 5253 5250 5248 5246 5243 5241 5239 5237 5235 5233 5231 5229 5227 5225 5223 5222 5220 5218 5216 5215 5213 5212 5210 5208 5207 5205 5203 5202 5199 5198 5196 5194 5193 5192 5191 5189 5187 5186 5184 5183 5182 5180 5179 5178 5176 5175 5174 5173 5172 5171 5171 5170 5170 5170 5169 5169 5169 5169 5169 5169 5168 5168 5167 5167 5167 5167 5167 5168 5169 5170 5172 5174 5177 5180 5183 5187 5191 5196 5201 5206 5211 5216 5221 5225
5256 5254 5252 5249 5247 5245 5243 5241 5239 5237 5235 5233 5231 5229 5227 5225 5223 5222 5220 5218 5216 5214 5213 5211 5210 5208 5207 5205 5203 5201 5199 5198 5196 5194 5193 5192 5191 5189 5187 5185 5184 5183 5182 5180 5179 5178 5176 5175 5174 5173 5172 5172 5171 5171 5170 5170 5170 5170 5170 5170 5170 5169 5168 5168 5168 5167 5168 5168 5168 5169 5171 5172 5174 5176 5179 5182 5186 5189 5193 5198 5203 5207 5212 5217 5221 5225
5255 5253 5251 5249 5247 5245 5243 5241 5239 5238 5235 5233 5231 5229 5227 5225 5223 5222 5220 5218 5216 5214 5213 5211 5209 5208 5206 5205 5203 5201 5199 5198 5196 5194 5193 5192 5191 5189 5188 5185 5184 5183 5182 5180 5179 5178 5176 5175 5174 5173 5173 5172 5171 5171 5171 5170 5170 5171 5171 5170 5170 5169 5169 5168 5168 5168 5169 5169 5170 5171 5173 5174 5176 5178 5181 5184 5188 5192 5196 5200 5204 5208 5213 5217 5221 5225
5254 5252 5250 5248 5247 5245 5243 5241 5239 5238 5236 5234 5232 5230 5228 5226 5224 5222 5220 5218 5216 5214 5213 5211 5209 5208 5206 5204 5203 5201 5199 5198 5196 5194 5193 5192 5191 5190 5188 5186 5184 5183 5182 5181 5179 5178 5177 5176 5175 5174 5173 5173 5172 5172 5171 5171 5171 5171 5171 5171 5170 5170 5169 5169 5169 5170 5170 5171 5172 5173 5174 5176 5178 5181 5183 5187 5190 5193 5197 5201 5205 5209 5213 5217 5221 5225
5253 5252 5250 5248 5247 5245 5243 5241 5239 5238 5236 5234 5232 5230 5228 5226 5224 5222 5221 5219 5217 5215 5213 5211 5209 5208 5206 5204 5203 5201 5199 5198 5196 5195 5193 5192 5192 5190 5188 5186 5185 5183 5182 5181 5180 5179 5178 5177 5176 5175 5174 5173 5173 5173 5172 5172 5172 5172 5172 5172 5171 5171 5171 5171 5171 5171 5172 5173 5174 5175 5177 5178 5181 5183 5186 5189 5192 5196 5199 5203 5206 5210 5214 5218 5221 5225
5253 5251 5250 5248 5246 5245 5243 5241 5239 5238 5236 5234 5232 5230 5228 5227 5225 5223 5221 5219 5217 5215 5213 5212 5210 5208 5207 5205 5203 5202 5200 5198 5197 5195 5194 5193 5192 5191 5189 5187 5185 5184 5183 5182 5181 5180 5178 5178 5177 5176 5175 5174 5174 5174 5173 5173 5173 5173 5173 5173 5173 5172 5172 5173 5173 5173 5174 5175 5176 5177 5179 5181 5183 5185 5188 5191 5194 5197 5200 5204 5207 5210 5214 5218 5221 5225
5253 5251 5249 5248 5246 5244 5243 5241 5239 5238 5236 5234 5233 5231 5229 5228 5226 5224 5222 5220 5218 5216 5214 5212 5210 5209 5207 5206 5204 5203 5201 5199 5197 5196 5194 5193 5192 5191 5189 5188 5187 5185 5184 5183 5182 5181 5179 5178 5178 5177 5176 5176 5176 5175 5175 5175 5175 5175 5174 5174 5173 5173 5174 5174 5175 5175 5176 5177 5178 5179 5181 5183 5185 5187 5189 5192 5195 5198 5201 5204 5208 5211 5214 5218 5221 5225
5253 5251 5249 5248 5246 5244 5243 5241 5239 5238 5236 5234 5233 5232 5230 5228 5227 5225 5223 5221 5219 5217 5215 5213 5211 5209 5208 5206 5204 5203 5201 5199 5198 5196 5195 5194 5192 5191 5190 5189 5188 5187 5186 5184 5183 5182 5181 5180 5179 5178 5178 5177 5177 5177 5177 5177 5176 5176 5176 5175 5175 5175 5176 5176 5177 5178 5178 5179 5180 5182 5183 5185 5186 5188 5190 5193 5196 5198 5202 5205 5208 5211 5215 5218 5222 5225
5253 5251 5249 5248 5246 5244 5243 5241 5239 5238 5236 5235 5233 5232 5231 5229 5227 5226 5224 5222 5220 5218 5216 5214 5212 5210 5208 5206 5205 5203 5202 5200 5198 5197 5196 5195 5193 5192 5191 5190 5189 5188 5187 5185 5184 5183 5182 5181 5180 5180 5179 5179 5179 5178 5178 5178 5178 5177 5177 5177 5177 5177 5178 5178 5179 5180 5181 5182 5183 5184 5185 5187 5188 5190 5192 5194 5197 5200 5203 5206 5209 5212 5216 5219 5222 5225
5252 5251 5249 5248 5246 5244 5243 5241 5240 5238 5237 5235 5234 5232 5231 5229 5228 5226 5224 5222 5220 5218 5217 5215 5213 5210 5208 5207 5205 5203 5202 5201 5200 5198 5197 5196 5194 5193 5192 5191 5190 5189 5188 5187 5185 5184 5183 5183 5182 5181 5181 5181 5180 5180 5180 5179 5179 5179 5178 5178 5179 5179 5179 5180 5181 5182 5183 5184 5185 5186 5187 5188 5190 5192 5194 5196 5198 5201 5203 5206 5209 5213 5216 5219 5223 5226
5252 5251 5249 5248 5246 5245 5243 5242 5240 5239 5237 5236 5234 5233 5231 5229 5228 5226 5224 5222 5221 5219 5217 5215 5213 5211 5209 5207 5206 5204 5203 5202 5201 5200 5198 5197 5195 5194 5193 5192 5190 5189 5189 5188 5187 5186 5185 5184 5183 5183 5183 5182 5182 5181 5181 5181 5180 5180 5180 5180 5181 5181 5182 5183 5183 5184 5185 5186 5187 5188 5189 5191 5192 5194 5196 5198 5200 5202 5204 5207 5210 5213 5216 5219 5223 5226
5253 5251 5249 5248 5246 5245 5243 5242 5241 5239 5238 5236 5234 5233 5231 5229 5228 5226 5224 5223 5221 5219 5217 5215 5213 5212 5210 5208 5207 5206 5204 5203 5202 5201 5199 5198 5196 5195 5194 5193 5192 5191 5190 5189 5188 5187 5187 5186 5185 5184 5184 5183 5183 5183 5182 5182 5182 5182 5182 5182 5183 5183 5184 5184 5185 5186 5187 5188 5189 5190 5191 5193 5194 5196 5198 5199 5201 5203 5206 5208 5211 5213 5217 5219 5223 5226
5253 5251 5249 5248 5246 5245 5243 5242 5241 5239 5238 5237 5235 5233 5232 5230 5228 5227 5225 5223 5221 5219 5217 5215 5214 5213 5212 5210 5208 5207 5205 5204 5203 5202 5201 5199 5198 5196 5195 5194 5193 5192 5191 5190 5189 5188 5188 5187 5187 5186 5185 5185 5184 5184 5184 5183 5183 5183 5183 5184 5184 5185 5186 5186 5187 5188 5189 5190 5191 5192 5193 5195 5197 5198 5199 5201 5203 5205 5207 5210 5212 5214 5217 5220 5223 5226
5253 5251 5250 5248 5247 5245 5244 5243 5241 5240 5238 5237 5235 5234 5232 5231 5229 5227 5225 5223 5222 5219 5218 5216 5215 5214 5213 5211 5210 5208 5207 5205 5204 5203 5202 5201 5199 5198 5196 5195 5194 5193 5192 5191 5190 5189 5189 5188 5188 5187 5187 5186 5186 5186 5185 5185 5185 5185 5185 5186 5186 5187 5188 5188 5189 5190 5191 5192 5193 5194 5196 5197 5198 5200 5201 5203 5205 5207 5209 5212 5214 5216 5219 5221 5224 5227
5253 5252 5250 5248 5247 5245 5244 5243 5241 5240 5238 5237 5235 5234 5233 5231 5229 5228 5226 5224 5222 5221 5219 5218 5217 5215 5214 5213 5211 5209 5208 5206 5205 5203 5203 5202 5201 5199 5198 5197 5195 5194 5193 5192 5192 5191 5190 5190 5189 5189 5188 5188 5188 5187 5187 5187 5187 5187 5187 5188 5188 5189 5189 5190 5191 5192 5193 5194 5196 5197 5198 5199 5201 5202 5204 5206 5207 5209 5211 5213 5216 5218 5220 5223 5225 5228
5253 5252 5250 5248 5247 5246 5244 5243 5242 5240 5239 5238 5236 5234 5233 5232 5230 5229 5227 5225 5223 5222 5220 5219 5218 5217 5216 5214 5212 5210 5209 5207 5206 5204 5203 5203 5202 5201 5199 5198 5197 5196 5195 5194 5193 5192 5192 5191 5190 5190 5190 5189 5189 5189 5188 5188 5188 5189 5189 5190 5190 5191 5192 5193 5193 5194 5195 5197 5198 5199 5201 5202 5203 5205 5206 5208 5210 5211 5213 5215 5218 5220 5222 5225 5227 5230
5253 5252 5250 5249 5247 5246 5245 5243 5242 5241 5239 5238 5237 5235 5233 5232 5231 5229 5228 5226 5224 5223 5222 5221 5220 5218 5217 5215 5213 5212 5210 5208 5207 5206 5204 5203 5203 5202 5201 5200 5198 5197 5196 5195 5194 5193 5193 5192 5192 5191 5191 5191 5191 5190 5190 5190 5190 5191 5191 5192 5192 5193 5194 5194 5195 5197 5198 5199 5200 5202 5203 5204 5206 5207 5208 5210 5212 5214 5215 5218 5220 5222 5224 5227 5229 5232
5253 5252 5250 5249 5248 5247 5245 5244 5243 5241 5240 5238 5237 5236 5234 5233 5231 5230 5228 5227 5225 5224 5223 5222 5221 5220 5218 5216 5214 5213 5211 5209 5208 5207 5205 5204 5204 5203 5202 5201 5200 5199 5198 5197 5196 5195 5194 5194 5193 5193 5193 5192 5192 5192 5192 5193 5193 5193 5193 5194 5194 5195 5196 5197 5198 5199 5200 5201 5203 5204 5205 5206 5208 5209 5211 5213 5214 5216 5218 5220 5222 5224 5226 5228 5231 5233